Find SBS 3

NORAD ID: 13651 Int'l Des: 1982-110 Owner: SBS Country: US operational
HEOCIRCULAR

リアルタイム位置

3D地球を読み込み中...

SBS 3について

説明を読み込み中...

次回通過

Passes for default location (London). Set your location on the main map for personalized predictions.

高度履歴

Loading altitude history...

軌道要素

1 13651U 82110B 26105.48284705 -.00000159 00000-0 00000+0 0 9995
2 13651 12.5696 334.8170 0006134 102.6276 104.0095 0.99941274 45914
Epoch: Apr 15, 2026 • Age: 32 hours

現在のステータス

高度 35900.9 km
速度 3.07 km/s
衛星直下点 -8.00°S, 163.06°E
打ち上げ日 Nov 11, 1982
運用期間 43.4 years
タイプ other

技術仕様

分類 Payload
質量 589.00 kg
乾燥質量 441.00 kg
総質量 1115.00 kg
長さ 6.60 m
直径 2.20 m
スパン 6.60 m
形状 Cyl
製造者 HSES
バスタイプ HS-376
フェーズステータス Unknown Active Status
所有者/国 SBS/US

Most Searched